Location: Marcé
(47.5801°N, 0.3280°W)
Time: 11:13:05
(UTC+01:00)

Tiros 1 - Pass Details

Date: 07 December 2021
Orbit: 630 x 663 km, 48.4° (Epoch: 20 January)

Event Time Altitude Azimuth Distance (km) Brightness Sun altitude
Rises 17:39:24 0° 210° (SSW) 2,904 11.6 -5.1°
Reaches altitude 10° 17:42:01 10° 197° (SSW) 2,003 10.4 -5.5°
Maximum altitude 17:45:45 25° 142° (SE) 1,293 8.6 -6.0°
Drops below altitude 10° 17:49:31 10° 88° (E) 2,023 9.1 -6.6°
Enters shadow 17:50:22 - 83° (E) 2,302 9.4 -6.7°
